Location: Ash Swamp
(41.5170°N, 74.6157°W)
Time: 01:58:46
(UTC+00:00)

Cosmos 1536 - Pass Details

Date: 14 July 2020
Orbit: 539 x 559 km, 82.5° (Epoch: 14 August)

Event Time Altitude Azimuth Distance (km) Brightness Sun altitude
Exits shadow 06:49:44 33° 123° (ESE) 958 3.9 -22.3°
Maximum altitude 06:50:39 37° 92° (E) 871 4.0 -22.3°
Drops below altitude 10° 06:54:25 10° 24° (NNE) 1,847 6.7 -21.9°
Sets 06:56:41 0° 17° (NNE) 2,744 7.8 -21.7°
